Date_and_time,latitude,longitude,wind_speed,RelWindDirFrom,WindDirFrom,air_pressure,air_temperature,relative_humidity,Temp,platform_speed_wrt_ground,air_pressure_at_mean_sea_level,platform_orientation
2019-11-04 23:40,50.6304366666667,-96.9807716666667,12.6,18.5,303,992.10,-7.3,54,1.80,0.0,1020.85,360.0
2019-11-04 23:50,50.6304466666667,-96.9807933333333,12.0,20.6,306,992.25,-7.3,55,1.78,0.0,1021.00,360.0
2019-11-05 00:00,50.6304433333333,-96.9807783333333,12.0,17.0,312,992.29,-7.4,55,1.77,0.0,1021.06,311.7
2019-11-05 00:10,50.6304416666667,-96.9807783333333,10.2,17.2,307,992.41,-7.5,57,1.76,0.0,1021.19,311.7
2019-11-05 00:20,50.63044,-96.98078,10.7,15.8,305,992.48,-7.6,58,1.76,0.0,1021.27,311.7
2019-11-05 00:30,50.6304183333333,-96.9807883333333,9.2,14.3,308,992.58,-7.6,58,1.74,0.0,1021.37,311.7
2019-11-05 00:40,50.6304283333333,-96.9807866666667,12.6,18.9,312,992.45,-7.5,59,1.73,0.0,1021.23,311.7
2019-11-05 00:50,50.6304316666667,-96.9807833333333,13.3,20.5,312,992.48,-7.6,57,1.72,0.0,1021.26,311.7
2019-11-05 01:00,50.630445,-96.98078,10.7,16.5,307,992.73,-7.6,58,1.71,0.0,1021.52,311.7
2019-11-05 01:10,50.6304366666667,-96.98077,14.7,21.1,306,992.52,-7.7,56,1.70,0.0,1021.30,311.7
2019-11-05 01:20,50.630435,-96.98076,13.2,18.9,311,992.62,-7.7,57,1.69,0.0,1021.41,311.7
2019-11-05 01:30,50.6304266666667,-96.9807466666667,14.5,21.2,304,992.59,-7.7,57,1.68,0.0,1021.38,311.7
2019-11-05 01:40,50.6304283333333,-96.9807566666667,11.1,20.1,300,992.82,-7.7,58,1.68,0.0,1021.62,311.7
2019-11-05 01:50,50.6304283333333,-96.980765,12.4,19.8,302,992.68,-7.7,58,1.67,0.0,1021.48,311.7
2019-11-05 02:00,50.63043,-96.980765,12.1,19.2,302,992.71,-7.7,58,1.66,0.0,1021.52,0.0
2019-11-05 02:10,50.6304483333333,-96.9807516666667,12.5,18.0,307,992.66,-7.8,60,1.65,0.0,1021.49,0.0
2019-11-05 02:20,50.6304483333333,-96.98077,12.0,18.5,303,992.75,-8.0,63,1.64,0.0,1021.59,0.0
2019-11-05 02:30,50.63044,-96.98078,10.8,16.7,300,992.76,-8.1,66,1.62,0.0,1021.60,0.0
2019-11-05 02:40,50.6304383333333,-96.9807766666667,10.5,15.8,297,992.76,-8.2,64,1.61,0.0,1021.60,0.0
2019-11-05 02:50,50.63044,-96.980775,11.1,19.4,298,992.73,-8.3,62,1.59,0.0,1021.58,0.0
2019-11-05 03:00,50.63044,-96.9807733333333,11.7,18.1,301,992.77,-8.3,62,1.58,0.0,1021.63,90.0
2019-11-05 03:10,50.630445,-96.9807716666667,10.0,15.1,298,992.97,-8.5,67,1.57,0.0,1021.84,90.0
2019-11-05 03:20,50.6304433333333,-96.9807716666667,11.2,18.9,297,992.97,-8.6,67,1.56,0.0,1021.85,90.0
2019-11-05 03:30,50.6304433333333,-96.980775,10.2,15.1,291,993.03,-8.6,65,1.55,0.0,1021.92,90.0
2019-11-05 03:40,50.630445,-96.9807766666667,9.5,14.8,289,993.05,-8.6,64,1.53,0.0,1021.94,90.0
2019-11-05 03:50,50.6304583333333,-96.98076,9.7,15.7,292,993.07,-8.6,62,1.51,0.0,1021.96,90.0
2019-11-05 04:00,50.6304483333333,-96.9807683333333,10.2,15.2,285,993.21,-8.7,63,1.49,0.0,1022.11,66.4
2019-11-05 04:10,50.6304516666667,-96.98077,8.4,12.3,282,993.38,-8.7,65,1.46,0.0,1022.29,66.4
2019-11-05 04:20,50.6304483333333,-96.9807683333333,8.7,14.4,288,993.35,-8.7,65,1.45,0.0,1022.27,66.4
2019-11-05 04:30,50.63045,-96.9807733333333,8.1,12.9,291,993.43,-8.8,65,1.43,0.0,1022.36,66.4
2019-11-05 04:40,50.6304516666667,-96.98077,8.5,15.5,292,993.54,-8.8,65,1.41,0.0,1022.48,66.4
2019-11-05 04:50,50.630445,-96.98077,8.2,13.4,293,993.63,-8.9,66,1.39,0.0,1022.58,66.4
2019-11-05 05:00,50.6304483333333,-96.9807483333333,9.0,14.9,295,993.64,-9.0,65,1.35,0.0,1022.60,14.5
2019-11-05 05:10,50.6304466666667,-96.98077,7.9,12.9,290,993.72,-9.0,65,1.31,0.0,1022.70,14.5
2019-11-05 05:20,50.6304466666667,-96.9807766666667,8.9,14.9,293,993.72,-9.0,65,1.30,0.0,1022.70,14.5
2019-11-05 05:30,50.6304433333333,-96.980775,7.0,10.9,294,993.84,-9.1,66,1.28,0.0,1022.82,14.5
2019-11-05 05:40,50.6304416666667,-96.9807716666667,7.5,11.3,297,993.81,-9.2,66,1.28,0.0,1022.79,14.5
2019-11-05 05:50,50.6304416666667,-96.9807733333333,7.9,12.6,297,993.76,-9.2,66,1.27,0.0,1022.76,14.5
2019-11-05 06:00,50.6304416666667,-96.980775,7.7,12.0,296,993.79,-9.3,66,1.25,0.0,1022.79,90.0
2019-11-05 06:10,50.630445,-96.98078,7.8,11.3,296,993.83,-9.3,66,1.23,0.0,1022.83,90.0
2019-11-05 06:20,50.6304416666667,-96.9807683333333,8.2,13.1,297,993.96,-9.3,66,1.21,0.0,1022.97,90.0
2019-11-05 06:30,50.63044,-96.9807633333333,7.8,12.5,296,993.98,-9.4,66,1.20,0.0,1022.99,90.0
2019-11-05 06:40,50.6304383333333,-96.98076,6.8,10.3,297,994.05,-9.4,66,1.17,0.0,1023.07,90.0
2019-11-05 06:50,50.6304283333333,-96.9807666666667,6.5,9.9,290,994.04,-9.4,67,1.15,0.0,1023.06,90.0
2019-11-05 07:00,50.6304383333333,-96.98076,8.2,13.5,295,993.95,-9.4,66,1.14,0.0,1022.98,131.7
2019-11-05 07:10,50.630435,-96.9807616666667,7.3,11.1,298,993.98,-9.5,66,1.13,0.0,1023.01,131.7
2019-11-05 07:20,50.630435,-96.9807633333333,7.3,10.8,293,993.94,-9.5,66,1.11,0.0,1022.98,131.7
2019-11-05 07:30,50.6304366666667,-96.980765,6.4,9.6,296,993.96,-9.5,67,1.08,0.0,1023.00,131.7
2019-11-05 07:40,50.630435,-96.9807633333333,6.4,11.2,293,993.98,-9.6,67,1.07,0.0,1023.02,131.7
2019-11-05 07:50,50.6304366666667,-96.9807616666667,5.3,9.1,286,994.01,-9.6,68,1.06,0.0,1023.07,131.7
2019-11-05 08:00,50.6304366666667,-96.98076,4.5,6.9,273,994.06,-9.7,69,1.04,0.0,1023.12,194.5
2019-11-05 08:10,50.6304366666667,-96.9807616666667,4.3,6.8,273,994.20,-9.8,70,1.02,0.0,1023.27,194.5
2019-11-05 08:20,50.6304383333333,-96.9807616666667,4.6,7.0,273,994.27,-10.0,70,0.99,0.0,1023.36,194.5
2019-11-05 08:30,50.6304383333333,-96.9807616666667,4.7,7.4,271,994.29,-10.1,71,0.97,0.0,1023.38,194.5
2019-11-05 08:40,50.6304383333333,-96.9807633333333,4.4,7.8,276,994.22,-10.1,72,0.94,0.0,1023.32,194.5
2019-11-05 08:50,50.6304383333333,-96.980765,4.1,6.2,266,994.25,-10.2,73,0.91,0.0,1023.35,194.5
2019-11-05 09:00,50.6304316666667,-96.980775,4.9,8.0,262,994.25,-10.3,73,0.90,0.0,1023.36,142.0
2019-11-05 09:10,50.6304366666667,-96.9807666666667,5.1,7.6,264,994.35,-10.3,72,0.88,0.0,1023.46,142.0
2019-11-05 09:20,50.6304333333333,-96.9807666666667,5.4,8.4,261,994.39,-10.3,72,0.87,0.0,1023.50,142.0
2019-11-05 09:30,50.6304366666667,-96.9807783333333,5.6,8.0,275,994.37,-10.2,72,0.86,0.0,1023.48,142.0
2019-11-05 09:40,50.6304366666667,-96.9807783333333,5.9,8.5,278,994.38,-10.1,71,0.85,0.0,1023.49,142.0
2019-11-05 09:50,50.630435,-96.9807716666667,6.2,8.9,278,994.39,-10.1,71,0.84,0.0,1023.51,142.0
2019-11-05 10:00,50.6304316666667,-96.9807616666667,6.4,10.0,276,994.44,-10.1,71,0.86,0.0,1023.57,360.0
2019-11-05 10:10,50.6304316666667,-96.9807616666667,6.1,8.8,272,994.52,-10.2,71,0.86,0.0,1023.66,360.0
2019-11-05 10:20,50.6304316666667,-96.9807683333333,6.3,8.8,273,994.57,-10.2,71,0.83,0.0,1023.72,360.0
2019-11-05 10:30,50.6304283333333,-96.9807683333333,5.8,9.6,272,994.66,-10.3,72,0.81,0.0,1023.82,360.0
2019-11-05 10:40,50.6304233333333,-96.980795,5.9,9.0,276,994.76,-10.4,71,0.80,0.0,1023.94,360.0
2019-11-05 10:50,50.6304033333333,-96.9807716666667,5.3,8.5,272,994.87,-10.3,72,0.79,0.0,1024.05,360.0
2019-11-05 11:00,50.6304033333333,-96.9807733333333,5.5,8.4,268,994.93,-10.3,72,0.78,0.0,1024.11,203.5
2019-11-05 11:10,50.6304083333333,-96.9807783333333,6.5,9.0,266,994.95,-10.4,71,0.76,0.0,1024.13,203.5
2019-11-05 11:20,50.63041,-96.98078,5.7,8.8,267,995.02,-10.4,71,0.72,0.0,1024.20,203.5
2019-11-05 11:30,50.6304233333333,-96.98079,5.8,8.4,262,995.03,-10.6,72,0.72,0.0,1024.22,203.5
2019-11-05 11:40,50.6304466666667,-96.9808433333333,5.2,7.6,258,995.10,-10.8,73,0.71,0.0,1024.30,203.5
2019-11-05 11:50,50.6304316666667,-96.9808,5.5,8.2,253,995.14,-11.0,73,0.71,0.0,1024.36,203.5
2019-11-05 12:00,50.630435,-96.9807966666667,6.1,8.5,256,995.10,-11.1,73,0.71,0.0,1024.32,286.8
2019-11-05 12:10,50.630435,-96.9807933333333,6.2,8.3,254,995.00,-11.2,74,0.71,0.0,1024.22,286.8
2019-11-05 12:20,50.6304083333333,-96.980785,6.0,8.1,250,994.98,-11.5,75,0.72,0.0,1024.23,286.8
2019-11-05 12:30,50.6304266666667,-96.9807866666667,6.1,7.9,251,995.00,-11.7,75,0.74,0.0,1024.26,286.8
2019-11-05 12:40,50.6304283333333,-96.9807866666667,5.5,7.3,251,995.04,-11.8,76,0.73,0.0,1024.30,286.8
2019-11-05 12:50,50.6304366666667,-96.9807816666667,5.7,8.2,253,995.07,-11.7,76,0.73,0.0,1024.33,286.8
2019-11-05 13:00,50.6304183333333,-96.9807533333333,5.7,7.9,258,995.01,-11.7,77,0.74,0.0,1024.28,360.0
2019-11-05 13:10,50.6304116666667,-96.980745,5.2,7.7,257,995.10,-11.6,77,0.73,0.0,1024.37,360.0
2019-11-05 13:20,50.6304166666667,-96.9807516666667,5.9,7.8,254,995.14,-11.7,77,0.73,0.0,1024.42,360.0
2019-11-05 13:30,50.6304166666667,-96.980755,5.6,8.0,252,995.19,-11.7,77,0.75,0.0,1024.48,360.0
2019-11-05 13:40,50.63042,-96.9807616666667,5.6,7.4,247,995.25,-11.6,78,0.78,0.0,1024.55,360.0
2019-11-05 13:50,50.6304133333333,-96.9808216666667,5.6,7.8,251,995.28,-11.5,77,0.82,0.0,1024.57,360.0
2019-11-05 14:00,50.6304166666667,-96.9807883333333,5.5,7.7,252,995.33,-11.4,77,0.86,0.0,1024.64,304.8
2019-11-05 14:10,50.63041,-96.9808016666667,5.3,9.1,253,995.37,-11.3,77,0.87,0.0,1024.69,304.8
2019-11-05 14:20,50.6304133333333,-96.9807916666667,5.7,8.8,255,995.46,-11.2,77,0.88,0.0,1024.78,304.8
2019-11-05 14:30,50.6304266666667,-96.98077,5.0,7.5,270,995.45,-10.5,75,0.91,0.0,1024.74,304.8
2019-11-05 14:40,50.6304116666667,-96.98078,5.1,7.4,265,995.57,-9.9,73,0.95,0.0,1024.82,304.8
2019-11-05 14:50,50.6304133333333,-96.98078,5.3,8.6,267,995.62,-9.6,71,0.97,0.0,1024.86,304.8
2019-11-05 15:00,50.6304266666667,-96.9807966666667,5.3,8.1,277,995.64,-9.0,69,0.95,0.0,1024.84,360.0
2019-11-05 15:10,50.6304266666667,-96.980785,5.8,12.2,260,995.62,-8.7,69,0.93,0.0,1024.81,360.0
2019-11-05 15:20,50.6304266666667,-96.98078,5.8,10.2,262,995.67,-8.7,69,0.92,0.0,1024.86,360.0
2019-11-05 15:30,50.630425,-96.9807783333333,5.1,9.3,255,995.74,-8.5,71,0.92,0.0,1024.91,360.0
2019-11-05 15:40,50.6304266666667,-96.9807816666667,6.6,12.6,258,995.72,-8.3,71,0.94,0.0,1024.87,360.0
2019-11-05 15:50,50.6304183333333,-96.9807716666667,8.1,11.3,262,995.67,-8.1,71,0.94,0.0,1024.81,360.0
2019-11-05 16:00,50.6304183333333,-96.9807683333333,8.1,11.8,255,995.64,-8.1,71,0.99,0.0,1024.77,270.0
2019-11-05 16:10,50.6304133333333,-96.980765,7.8,13.7,274,995.52,-7.9,69,1.01,0.0,1024.63,270.0
2019-11-05 16:20,50.6304133333333,-96.9807633333333,8.2,13.1,277,995.55,-7.8,67,1.02,0.0,1024.61,270.0
2019-11-05 16:30,50.6304116666667,-96.98076,7.7,11.2,271,995.66,-7.6,65,1.01,0.0,1024.69,270.0
2019-11-05 16:40,50.63041,-96.9807583333333,7.5,11.2,280,995.61,-7.5,66,1.00,0.0,1024.62,270.0
2019-11-05 16:50,50.6304116666667,-96.9807583333333,7.2,11.5,281,995.76,-7.5,67,0.99,0.0,1024.73,270.0
2019-11-05 17:00,50.6304133333333,-96.9807583333333,5.9,10.1,267,995.85,-7.4,66,0.99,0.0,1024.80,90.0
2019-11-05 17:10,50.630415,-96.9807583333333,8.7,13.3,274,995.79,-7.3,64,0.99,0.0,1024.74,90.0
2019-11-05 17:20,50.6304433333333,-96.980775,9.3,14.3,265,995.85,-7.3,62,0.98,0.0,1024.79,90.0
2019-11-05 17:30,50.630445,-96.9807766666667,9.8,14.0,269,995.75,-7.3,59,0.99,0.0,1024.67,90.0
2019-11-05 17:40,50.63044,-96.9807666666667,9.8,14.3,276,995.74,-7.4,62,1.01,0.0,1024.65,90.0
2019-11-05 17:50,50.63044,-96.9807633333333,8.3,12.9,301,995.76,-7.3,58,1.01,0.0,1024.66,90.0
2019-11-05 18:00,50.6304383333333,-96.9807633333333,8.2,12.3,282,995.77,-7.2,57,1.00,0.0,1024.66,50.9
2019-11-05 18:10,50.6304266666667,-96.9807566666667,6.8,10.2,276,995.74,-7.2,56,1.01,0.0,1024.63,50.9
2019-11-05 18:20,50.63043,-96.9807666666667,6.9,10.3,265,995.71,-7.2,61,1.01,0.0,1024.59,50.9
2019-11-05 18:30,50.630415,-96.9807616666667,7.7,11.3,268,995.61,-7.2,57,1.02,0.0,1024.48,50.9
2019-11-05 18:40,50.630445,-96.9807683333333,7.5,10.6,268,995.64,-7.2,55,1.03,0.0,1024.51,50.9
2019-11-05 18:50,50.6304433333333,-96.9807666666667,6.8,10.0,267,995.61,-7.1,56,1.02,0.0,1024.47,50.9
2019-11-05 19:00,50.6304366666667,-96.9807616666667,6.6,11.3,276,995.56,-7.1,57,1.02,0.0,1024.41,360.0
2019-11-05 19:10,50.6304366666667,-96.9807666666667,7.5,11.8,262,995.59,-7.1,57,1.02,0.0,1024.45,360.0
2019-11-05 19:20,50.6304366666667,-96.9807666666667,8.3,13.4,295,995.55,-7.1,56,1.02,0.0,1024.40,360.0
2019-11-05 19:30,50.6304366666667,-96.9807666666667,8.6,13.0,293,995.55,-7.1,55,1.01,0.0,1024.40,360.0
2019-11-05 19:40,50.6304366666667,-96.9807666666667,7.4,11.5,280,995.61,-7.1,56,1.01,0.0,1024.46,360.0
2019-11-05 19:50,50.6304383333333,-96.9807666666667,7.3,10.9,302,995.46,-7.0,56,1.02,0.0,1024.29,360.0
2019-11-05 20:00,50.63044,-96.9807666666667,8.0,13.6,295,995.35,-6.7,54,1.02,0.0,1024.16,346.7
2019-11-05 20:10,50.63044,-96.980765,6.3,9.7,293,995.40,-6.7,54,1.03,0.0,1024.22,346.7
2019-11-05 20:20,50.6304516666667,-96.9807533333333,7.4,12.5,280,995.38,-6.5,53,1.02,0.0,1024.19,346.7
2019-11-05 20:30,50.6304416666667,-96.98077,6.5,10.5,282,995.46,-6.1,52,1.02,0.0,1024.24,346.7
2019-11-05 20:40,50.6304416666667,-96.98077,7.9,12.8,301,995.32,-6.5,53,1.02,0.0,1024.13,346.7
2019-11-05 20:50,50.6304016666667,-96.9807866666667,5.5,11.2,292,995.31,-6.1,51,1.03,0.0,1024.09,346.7
2019-11-05 21:00,50.6304383333333,-96.980775,6.3,10.7,276,995.27,-5.5,50,1.04,0.0,1024.02,270.0
2019-11-05 21:10,50.6304383333333,-96.9807783333333,7.9,12.1,295,995.12,-5.5,49,1.04,0.0,1023.86,270.0
2019-11-05 21:20,50.630435,-96.9807766666667,6.2,9.6,295,995.27,-5.7,50,1.05,0.0,1024.02,270.0
2019-11-05 21:30,50.6304383333333,-96.9807716666667,7.4,11.5,305,995.16,-5.6,50,1.05,0.0,1023.90,270.0
2019-11-05 21:40,50.6304383333333,-96.9807716666667,6.7,12.7,300,995.07,-5.7,49,1.05,0.0,1023.81,270.0
2019-11-05 21:50,50.63044,-96.98077,6.9,10.3,295,994.97,-5.7,50,1.07,0.0,1023.69,270.0
2019-11-05 22:00,50.63044,-96.98077,6.4,8.9,300,995.08,-5.8,50,1.07,0.0,1023.81,347.4
2019-11-05 22:10,50.6304416666667,-96.9807683333333,5.9,9.4,296,995.23,-6.0,50,1.08,0.0,1023.97,347.4
2019-11-05 22:20,50.6304416666667,-96.9807683333333,5.8,8.4,302,995.27,-6.3,51,1.08,0.0,1024.00,347.4
2019-11-05 22:30,50.63044,-96.9807683333333,4.4,6.5,299,995.41,-6.5,52,1.09,0.0,1024.18,347.4
2019-11-05 22:40,50.63044,-96.98077,3.6,6.1,289,995.47,-6.6,52,1.09,0.0,1024.22,347.4
2019-11-05 22:50,50.630435,-96.9807533333333,2.4,3.7,279,995.42,-6.6,54,1.11,0.0,1024.15,347.4
2019-11-05 23:00,50.6304433333333,-96.9807666666667,2.6,4.0,279,995.52,-6.7,55,1.12,0.0,1024.24,90.0
2019-11-05 23:10,50.6304433333333,-96.980765,2.8,4.4,260,995.66,-6.8,55,1.12,0.0,1024.41,90.0
2019-11-05 23:20,50.6304433333333,-96.980765,2.9,3.9,261,995.76,-6.9,55,1.13,0.0,1024.51,90.0
2019-11-05 23:30,50.6304433333333,-96.9807666666667,2.6,4.4,252,995.74,-6.8,55,1.15,0.0,1024.50,90.0
2019-11-05 23:40,50.6304433333333,-96.9807683333333,3.6,4.9,248,995.76,-7.0,57,1.15,0.0,1024.53,90.0
2019-11-05 23:50,50.630445,-96.98077,3.0,4.4,249,995.71,-7.1,58,1.15,0.0,1024.48,90.0
